Regional Weather Roundup
Issued by NWS State College, PA

Home | Current Version | Previous Version | Graphics & Text | Print | Product List | Glossary On
Versions: 1 2 3 4 5 6 7 8 9 10 11 12 13 14 15 16 17 18 19 20 21 22 23 24 25 26 27 28 29 30 31 32 33 34 35 36 37 38 39 40 41 42 43 44 45 46 47 48 49 50
000
ASUS41 KCTP 220903
RWRCTP

REGIONAL WEATHER ROUNDUP
NATIONAL WEATHER SERVICE STATE COLLEGE PA
500 AM EDT TUE AUG 22 2017

Note: "fair" indicates few or no clouds below 12,000 feet with no
significant weather and/or obstructions to visibility.

* = STATION THAT DOES NOT REPORT PRECIPITATION /E.G. RAIN...SNOW...ETC/
    THUNDER OR FOG.

PAZ002>004-007>009-013>016-020>023-029>032-221000-
WESTERN PENNSYLVANIA

CITY           SKY/WX    TMP DP  RH WIND       PRES   REMARKS
ERIE           CLEAR     76  68  76 S12       29.92F
MEADVILLE      CLEAR     72  69  90 VRB6      30.00F
FRANKLIN*      MOCLDY    70  64  83 SW8       30.03F
NEW CASTLE     FAIR      72  70  93 VRB3      30.01F
BEAVER COUNTY  NOT AVBL
BUTLER*        MOCLDY    72  68  88 S6        30.04S
PITTSBURGH INT MOCLDY    72  69  90 S3        30.03F
PITTSBURGH     PTCLDY    71  66  84 S7        30.03F
INDIANA*       CLEAR     68  68 100 CALM      30.08S
LATROBE        PTCLDY    70  70 100 S7        30.06S
WASHINGTON CO* CLOUDY    66  64  94 CALM      30.04F
$$

PAZ004>006-010>012-017>019-024>028-033>037-041-042-045-046-049>053-221000-
CENTRAL PENNSYLVANIA

CITY           SKY/WX    TMP DP  RH WIND       PRES   REMARKS
BRADFORD       PTCLDY    70  69  97 S5        30.04F
DUBOIS         PTCLDY    68  65  90 SW5       30.05F FOG
CLEARFIELD     FOG       65  65 100 CALM      30.06F VSB 1/2
JOHNSTOWN      MOCLDY    71  66  84 SW8       30.11F
ALTOONA        PTCLDY    68  67  96 SW6       30.07F
STATE COLLEGE  CLEAR     67  67  98 SW5       30.05F FOG
WILLIAMSPORT   FOG       69  69 100 N3        30.02S VSB 3/4
SELINSGROVE    CLEAR     67  67 100 CALM      30.04S FOG
FT INDIANTOWN  CLOUDY    66  66 100 CALM      30.05S FOG
CAPITAL CITY   PTCLDY    70  67  90 CALM      30.04S
HARRISBURG     MOCLDY    71  71 100 E3        30.03F FOG
YORK           PTCLDY    66  66 100 CALM      30.04F FOG
$$

PAZ038>040-043-044-047-048-054-055-060>062-067>071-221000-
EASTERN PENNSYLVANIA

CITY           SKY/WX    TMP DP  RH WIND       PRES   REMARKS
SCRANTON       CLEAR     67  66  97 CALM      30.05F FOG
MOUNT POCONO   CLEAR     65  65 100 W3        30.10F FOG
ALLENTOWN      CLEAR     69  66  90 CALM      30.05F FOG
QUAKERTOWN*    SUNNY     66  66 100 CALM      30.07S
READING        CLEAR     68  68 100 CALM      30.04F
LANCASTER      FOG       68  68 100 CALM      30.05S VSB 1/4
COATESVILLE    SUNNY     70  70 100 CALM      30.07F FOG
POTTSTOWN      CLEAR     69  69 100 CALM      30.07F FOG
BLUE BELL      PTCLDY    72  72 100 CALM      30.06F
DOYLESTOWN     CLEAR     69  69 100 S3        30.05F FOG
WILLOW GROVE   NOT AVBL
NORTH PHILA    PTCLDY    76  73  91 CALM      30.06F FOG
PHILADELPHIA   CLOUDY    75  73  93 S8        30.05F
$$




USA.gov is the U.S. government's official web portal to all federal, state and local government web resources and services.